Theta_e
342 343 340 338 339 338 337 334 327 320 322 325 324 330 331 331 333 334 334 332 330 329 328 328 329 330 331 332 334 338 342 344 346 349 351 353 356 358
339 341 341 339 339 340 338 336 332 326 322 325 326 330 333 332 333 334 334 330 330 328 327 327 328 329 330 330 331 333 336 340 341 343 346 348 350 353
342 341 341 343 338 339 338 336 332 330 325 326 328 332 333 333 334 335 334 333 330 328 328 327 326 326 327 328 328 329 331 334 338 339 342 345 347 348
339 340 340 338 340 341 336 337 336 334 329 326 331 329 332 334 333 333 332 331 330 329 327 326 325 324 325 325 325 326 326 329 332 335 337 340 343 345
339 339 338 339 338 336 336 333 332 336 332 326 325 327 329 331 330 332 331 331 329 329 325 325 325 325 324 322 322 322 321 322 324 328 330 332 336 339
339 339 339 338 337 336 334 335 334 331 330 328 325 325 326 330 328 325 324 326 325 327 327 326 326 325 324 322 322 322 320 318 319 321 324 325 329 333
339 340 340 338 333 331 330 332 333 329 326 324 323 323 323 323 323 324 322 323 325 326 324 325 325 324 325 324 326 327 324 322 320 319 320 321 322 326
337 339 338 330 330 327 326 327 329 329 327 330 325 322 324 324 324 322 320 318 316 326 324 322 324 322 324 325 324 323 323 322 322 321 319 319 319 321
338 337 334 331 328 331 326 324 324 324 326 328 323 323 323 324 323 320 319 316 315 322 323 320 322 322 322 322 322 321 321 320 320 321 320 319 318 318
337 336 334 332 332 327 327 327 328 328 328 325 325 324 324 323 321 320 317 316 318 321 325 317 320 317 319 321 322 321 321 320 319 319 320 317 315 313
337 334 331 330 322 317 323 324 325 326 321 316 316 315 315 316 317 317 314 315 314 317 321 314 313 313 316 318 323 322 320 318 317 318 320 317 313 311
332 329 318 323 313 313 323 324 322 323 321 320 320 319 319 320 318 321 317 313 314 311 316 311 312 312 310 317 322 326 328 317 315 316 317 316 312 331
328 326 327 312 309 308 308 323 319 316 317 317 317 317 318 319 320 320 321 317 316 311 315 314 312 313 312 312 318 321 328 328 329 324 312 312 309 324
328 327 323 308 305 307 310 309 308 309 315 315 314 314 314 314 315 316 318 319 320 315 316 315 312 312 314 313 317 323 329 331 337 334 333 318 309 313
325 316 307 304 304 305 310 308 306 314 313 311 310 310 311 312 314 314 316 320 321 318 316 316 317 318 319 318 318 323 324 334 337 333 330 323 320 323
312 319 312 309 308 313 311 311 311 311 309 308 307 308 310 309 308 309 311 314 312 316 315 318 318 320 320 321 322 320 328 326 329 329 327 327 328 331
314 319 319 318 317 316 312 311 311 309 307 307 306 306 306 306 306 308 311 313 311 312 310 315 317 320 320 320 321 322 329 329 329 326 326 324 325 329
312 315 316 315 314 313 312 310 309 305 306 305 305 304 303 303 304 306 311 312 312 313 312 313 313 313 318 317 316 313 317 333 332 331 331 327 324 327
313 314 314 313 312 310 307 306 305 304 305 303 303 303 303 303 303 306 307 308 307 310 312 313 312 309 308 307 316 312 312 317 328 326 328 328 329 327
314 313 312 309 307 307 307 305 303 302 301 302 302 303 302 302 302 304 306 303 306 306 312 314 311 308 307 308 310 313 310 313 317 328 327 329 328 323
310 309 308 307 307 307 306 303 300 299 300 301 302 302 302 302 302 303 305 303 304 304 306 310 310 311 313 314 309 309 314 309 310 313 319 327 328 328
309 308 307 308 308 306 302 300 299 301 302 301 301 302 302 302 301 302 304 305 307 307 308 309 311 310 309 307 306 307 308 310 313 311 310 309 320 326
308 308 307 307 304 302 300 300 302 302 301 301 301 301 302 301 302 302 302 304 305 306 305 307 309 307 306 305 306 306 307 306 307 308 309 309 310 310
Wind_Speed
6 7 7 6 6 6 6 6 6 9 10 6 5 2 5 7 9 10 10 8 11 13 13 14 15 16 16 17 18 18 18 19 18 18 21 21 22 22
6 7 7 6 7 6 6 6 6 8 11 8 7 9 9 7 9 10 11 11 12 10 13 15 16 17 18 18 19 20 20 20 20 19 18 21 21 21
7 7 8 8 7 6 6 7 8 7 10 12 10 8 11 12 10 10 11 11 10 10 11 14 17 18 20 21 20 21 21 21 22 21 20 20 21 22
9 7 8 5 7 8 7 9 8 9 9 13 13 11 11 12 12 12 11 10 11 12 12 15 19 21 21 21 21 22 22 21 22 22 21 22 22 21
9 8 9 8 9 7 7 8 8 7 9 9 12 12 10 10 12 12 11 12 11 14 16 19 20 18 19 20 22 22 22 22 22 24 23 22 23 23
9 9 10 9 9 8 7 9 9 8 8 9 11 11 11 10 9 11 12 11 12 12 15 17 19 20 22 24 25 25 24 23 23 25 25 22 23 24
9 8 9 9 8 8 6 8 8 9 8 10 11 11 11 11 12 11 13 13 12 12 14 14 15 14 16 18 22 26 25 23 25 25 26 23 22 22
10 8 8 8 9 10 9 11 10 10 11 9 10 12 14 12 12 12 13 14 15 11 12 15 15 15 16 16 23 25 24 16 21 25 27 24 23 23
9 9 8 6 5 7 7 8 9 9 11 10 10 11 13 13 14 15 15 11 13 13 16 18 15 17 14 15 25 27 29 25 22 23 25 25 24 24
8 9 8 9 6 6 7 9 9 7 7 7 8 11 12 14 14 13 13 13 12 13 14 21 15 18 15 15 27 29 28 27 25 23 25 25 23 21
9 6 6 7 0 3 6 9 9 8 4 9 10 13 16 19 16 10 11 11 13 15 14 15 16 18 16 16 16 27 28 28 25 22 25 25 22 21
7 5 7 7 2 4 7 7 8 7 8 11 12 11 12 12 11 11 10 9 12 14 15 16 15 14 14 11 16 15 14 23 23 22 24 24 22 14
7 5 3 4 3 6 5 5 5 7 9 10 10 10 9 10 9 9 12 11 11 14 18 16 15 14 11 11 12 11 12 14 15 16 20 22 20 20
9 3 2 4 1 5 6 3 4 8 7 8 9 9 9 10 10 12 15 15 13 16 19 20 14 15 13 8 8 5 10 13 10 10 11 12 19 24
4 3 3 4 3 5 3 0 6 6 6 8 8 9 9 10 12 12 14 15 17 15 14 19 14 14 8 6 6 6 4 5 7 6 8 8 10 11
5 2 4 4 8 4 3 5 4 5 6 7 7 8 9 10 10 11 12 12 13 13 15 16 17 13 6 7 6 8 7 5 6 6 7 6 7 10
1 2 3 4 4 4 3 4 4 4 6 6 7 8 9 10 10 11 11 12 11 12 13 16 18 12 5 5 4 5 3 2 4 6 5 6 7 8
3 4 5 5 5 4 3 3 3 4 5 7 8 8 9 10 10 12 10 11 11 11 12 13 14 13 4 4 15 8 6 3 4 7 5 4 5 7
5 4 4 5 4 3 3 2 3 4 6 6 7 8 8 9 10 11 10 11 11 11 10 10 11 12 10 10 3 15 9 7 1 5 4 4 3 7
3 3 4 4 3 2 2 3 4 5 5 6 6 7 8 9 10 10 9 10 11 9 11 9 10 12 11 10 5 5 12 8 5 4 4 3 1 6
3 3 2 3 2 2 2 3 4 4 5 6 6 7 8 8 9 10 10 9 9 5 10 10 10 18 8 7 6 8 11 10 11 5 6 7 4 5
2 3 3 2 1 1 2 3 3 3 3 4 5 6 7 8 9 10 10 10 10 9 9 7 10 9 7 7 9 10 9 11 9 12 25 18 4 5
3 2 2 2 1 1 2 2 2 3 3 4 5 6 7 8 9 9 9 10 9 10 10 7 7 6 7 7 8 9 16 14 10 11 15 27 21 20
Wind_Direction
238 237 239 248 241 237 236 242 272 296 299 312 294 272 293 293 306 306 305 308 305 293 297 296 295 294 293 294 292 285 276 271 269 255 235 232 233 231
237 237 245 252 255 251 251 242 241 264 285 298 278 291 295 293 286 288 295 292 274 277 278 283 284 287 289 288 285 282 276 265 261 253 243 230 227 225
246 245 254 257 264 264 256 249 247 240 262 284 291 264 285 288 294 294 287 289 284 258 266 272 280 281 281 281 279 275 273 267 259 250 244 238 229 224
254 251 263 262 253 262 264 255 252 246 253 272 291 290 274 284 289 289 285 287 288 284 274 274 271 269 269 269 270 267 265 262 256 250 241 238 233 226
255 257 260 261 262 267 258 266 261 261 250 260 279 288 290 289 291 286 285 289 280 273 254 251 254 258 264 269 268 261 256 256 252 246 240 234 234 230
254 251 253 244 249 263 266 267 270 272 270 266 273 283 289 297 288 283 285 290 294 296 287 270 272 275 261 258 258 258 256 249 243 243 238 230 230 230
253 249 244 239 245 254 268 280 279 267 278 278 283 286 290 302 303 304 293 295 291 288 286 289 290 290 292 278 272 261 251 242 238 238 235 227 222 224
267 257 246 229 240 246 248 253 273 278 278 278 290 293 296 301 302 304 304 298 300 292 287 289 291 289 283 282 276 270 265 254 234 235 232 224 218 217
256 258 261 253 242 270 256 248 259 248 258 283 280 285 297 302 307 302 298 287 282 290 294 287 292 283 279 274 262 258 257 252 243 232 226 224 217 214
264 259 261 275 274 273 288 287 288 283 261 265 284 289 293 300 300 296 287 282 277 274 273 285 295 283 283 275 266 257 251 247 238 228 224 220 214 210
269 253 239 257 284 196 274 278 288 282 216 225 253 268 270 273 272 288 282 287 286 291 300 291 288 282 278 272 267 255 243 238 232 226 221 216 209 202
250 228 214 252 327 245 262 275 276 301 311 313 309 296 280 291 274 275 287 283 292 295 289 290 286 284 282 261 261 255 245 220 217 214 216 210 199 213
246 228 219 177 252 206 238 257 310 328 298 294 300 302 308 305 304 309 303 292 284 282 289 293 290 283 261 269 266 272 271 236 216 210 215 206 189 201
254 239 178 148 128 217 221 66 302 282 291 300 302 308 311 311 315 315 306 297 288 277 289 292 284 279 276 256 262 255 278 223 202 202 204 195 189 195
256 79 35 272 252 221 212 171 269 285 297 295 310 311 314 311 308 307 308 304 301 295 291 294 291 286 238 249 256 273 244 217 190 190 177 168 174 188
170 109 15 13 37 48 207 225 275 295 305 304 309 310 308 312 317 319 313 318 312 307 306 320 327 318 258 262 269 280 256 210 175 181 165 166 174 192
252 239 266 241 226 222 249 266 284 290 302 316 310 315 318 318 321 322 318 319 312 313 323 338 336 327 358 359 299 313 268 141 173 157 151 166 181 185
224 251 245 245 234 236 265 286 285 307 327 316 316 320 321 322 326 320 325 327 323 322 325 339 341 345 345 100 50 355 300 194 161 172 150 171 179 189
242 240 247 235 233 245 263 286 320 334 314 313 320 319 322 322 325 325 336 333 330 328 327 335 349 354 354 3 341 52 351 316 246 172 180 173 184 193
233 231 227 234 232 236 264 320 329 320 321 323 321 324 326 329 329 329 332 332 332 326 328 345 355 351 343 340 330 345 342 354 332 273 179 172 153 126
227 223 223 219 209 250 316 325 316 322 326 322 326 330 333 332 334 334 330 329 319 340 333 339 333 324 322 319 358 357 3 360 19 13 326 179 192 133
204 193 188 213 261 303 319 317 299 306 329 327 333 331 336 331 339 337 343 339 344 345 338 325 332 344 358 350 343 359 7 359 4 11 43 33 294 151
188 198 160 147 192 273 317 312 304 331 339 333 328 334 335 337 339 340 346 347 355 345 354 345 2 357 358 341 344 1 19 17 3 15 35 16 4 71